ICEYE-X2

导读

ICEYE-X2是芬兰航天企业ICEYE推出的第二颗小型合成孔径雷达(SAR)卫星,于2018年12月3日发射。作为全球百公斤级SAR卫星技术的先行者,它在ICEYE-X1基础上优化了成像性能,支持多模式高分辨率对地观测,可用于洪水监测、船舶探测等领域,是ICEYE商用雷达卫星星座建设的关键节点,推动了微小型SAR卫星的商业化应用发展。

基本信息
目录编号:
43800
目录名称:
ICEYE-X2
国际标识:
2018-099AU
轨道中心:
EARTH
卫星名称:
ICEYE-X2
卫星全名:
--
卫星状态:
在轨 (已飞行2793 天)
发射日期:
2018-12-03 UTC
国别 :
(FI)
星等 :
--
轨道信息
数据来源 国际轨道数据 AOE轨道数据
星历时间 2026-07-27T22:48:02+0800
8小时前
查看轨道信息
2026-07-26T00:00:00+0800
2天前
查看轨道信息
半长轴 6889.496km 6889.551km
偏心率 0.0011059 0.0010325
轨道倾角 97.434° 97.436°
近地点辐角 153.722° 165.989°
升交点赤经 261.751° 259.834°
平近点角 206.458° 343.438°
近地点 503.739km 504.3km
远地点 518.979km 518.528km
周期 94.851分钟 94.852分钟
每日圈数 15.181742 15.18156
详细信息
使用方式:
暂无
2D轨道图
3D轨道图
轨道高度分析图
轨道倾角分析图
轨道综合分析图
查看轨道综合分析图